User: anonymous   Login
Location: Molalla
(45.1473°N, 122.5770°W)
Time: 13:58:14
(UTC-08:00)
Language:

BEESAT - Orbit

View from above orbital plane
View from above orbital plane
View from above satellite
View from above satellite

Ground track
Ground track

The orbit data is extracted from the following two-line orbital elements,

1 35933U 09051C   19339.43338749  .00000106  00000-0  35011-4 0  9995
2 35933  98.6008 152.3697 0006218  28.2421 331.9112 14.56419144541598
Epoch (UTC): 05 December 2019 10:24:04
Eccentricity: 0.0006218
inclination: 98.6008°
perigee height: 700 km
apogee height: 709 km
right ascension of ascending node: 152.3697°
argument of perigee: 28.2421°
revolutions per day: 14.56419144
mean anomaly at epoch: 331.9112°
orbit number at epoch: 54159

The dashed part of the orbit path shows where the satellite is in the earth's shadow,  

DLR